Tracking 29030 objects as of 25-Jun-2024
HD Live streaming from Space Station
objects crossing your sky now

CZ-2D DEB

Track CZ-2D DEB now!
10-day predictions


NORAD ID: 43413
Int'l Code: 2013-068B
Perigee: 665.6 km
Apogee: 836.7 km
Inclination: 97.9 °
Period: 99.7 minutes
Semi major axis: 7122 km
RCS: Unknown
Launch date: November 25, 2013
Source: People's Republic of China (PRC)
Launch site: Jiuquan Satellite Launch Center, China (JSC)

Note: This is SATELLITE DEBRIS
Your satellite tracking list
Your tracking list is empty




NASA's NSSDC Master Catalog

Two Line Element Set (TLE):
1 43413U 13068B   24176.41755752  .00002064  00000-0  55973-3 0  9993
2 43413  97.8813 339.1014 0120154  19.4901 341.0827 14.44394306547426
Source of the keplerian elements: AFSPC